[[{"header":{"parameterUnit":"m.s-1","parameterCategory":1,"la1":30.2991,"la2":30.254,"lo1":-89.0895,"lo2":-89.0444,"dy":0.0017,"dx":0.0017,"nx":28,"ny":28,"refTime":"2024-06-14T21:00:00:Z","depth":0,"parameterNumber":2,"parameterNumberName":"U-component_of_WINDS"},"data":[0,0,0,0,0,0,0,0,0,0,0,0,0,0,0,0,0,0,0,0,0,0,0,0,0,0,0,0,0,0,0,0,0,0,0,0,0,0,0,0,0,0,0,0,0,0,0,0,0,0,0,0,0,0,0,0,0,0,-2.1066,-2.1066,0,-2.1118,-2.1119,-2.1119,-2.1099,-2.1097,-2.1096,-2.1095,-2.1149,-2.1151,-2.1154,0,0,0,0,0,0,0,0,0,0,0,0,0,-2.0947,-2.0949,-2.1066,-2.1066,-2.1067,-2.1118,-2.1119,-2.112,-2.1099,-2.1097,-2.1096,-2.1094,-2.1148,-2.1151,-2.1154,0,0,0,0,0,0,0,0,0,0,0,0,0,-2.0999,-2.095,-2.1066,-2.1063,-2.1063,-2.1118,-2.1119,-2.112,-2.1099,-2.1097,-2.1095,-2.1094,-2.1147,-2.1151,-2.1155,-2.1216,0,0,-2.1167,-2.1168,0,0,0,0,0,0,0,0,-2.0996,-2.1003,-2.1062,-2.1063,-2.1063,-2.11,-2.1097,-2.1152,-2.11,-2.1085,-2.1095,-2.1093,-2.1134,-2.1139,-2.1153,-2.1218,-2.122,-2.1167,-2.1169,-2.1171,-2.1172,0,0,0,0,0,0,0,-2.0992,-2.1001,-2.1086,-2.1063,-2.1064,-2.1059,-2.1064,-2.1107,-2.112,-2.1087,-2.1085,-2.1092,-2.1134,-2.1149,-2.1154,-2.1221,-2.1167,-2.117,-2.1173,-2.1174,-2.1338,-2.134,0,0,0,0,0,0,-2.0989,-2.0998,-2.1085,-2.1088,-2.1024,-2.1062,-2.1068,-2.109,-2.1119,-2.1122,-2.1093,-2.109,-2.1143,-2.115,-2.1156,-2.1229,-2.1171,-2.1174,-2.1177,-2.1336,-2.1339,-2.1341,0,0,0,0,0,0,-2.0986,-2.0996,-2.1083,-2.1043,-2.1053,-2.1066,-2.1091,-2.1092,-2.1107,-2.1124,-2.1126,-2.1106,-2.1142,-2.115,-2.1201,-2.123,-2.1176,-2.118,-2.1334,-2.1337,-2.134,-2.1375,0,0,0,0,0,0,-2.0983,-2.0996,-2.1019,-2.1043,-2.1055,-2.1127,-2.1093,-2.1094,-2.1114,-2.1111,-2.1137,-2.114,-2.1141,-2.1195,-2.1205,-2.1234,-2.1183,-2.1331,-2.1335,-2.1339,-2.1371,-2.1379,-2.1385,0,0,0,0,0,-2.0979,-2.1027,-2.102,-2.1031,-2.1085,-2.1129,-2.1136,-2.1137,-2.1116,-2.114,-2.1151,-2.1139,-2.1225,-2.12,-2.1211,-2.1242,-2.1329,-2.1334,-2.1339,-2.1368,-2.1377,-2.1385,0,0,0,0,0,0,-2.1006,-2.103,-2.1023,-2.1081,-2.1103,-2.1125,-2.1155,-2.1147,-2.1175,-2.1171,-2.1171,-2.1177,-2.1229,-2.1241,-2.1212,-2.1303,-2.1274,-2.1281,-2.1293,-2.1302,-2.1309,-2.1305,-2.1186,0,0,0,0,0,-2.1019,-2.1053,-2.1072,-2.1121,-2.1132,-2.1142,-2.1161,-2.116,-2.1182,-2.1192,-2.1206,-2.1229,-2.1261,-2.1282,-2.1313,-2.1373,-2.1378,-2.14,-2.1407,-2.1412,-2.1418,-2.145,-2.146,-2.1356,-2.1356,-2.1356,0,0,-2.1046,-2.1063,-2.1084,-2.1127,-2.1144,-2.1178,-2.115,-2.1188,-2.1213,-2.1197,-2.1246,-2.1257,-2.1282,-2.1337,-2.1362,-2.1349,-2.1448,-2.1418,-2.1423,-2.1425,-2.1456,-2.1466,-2.1474,-2.1359,-2.1359,-2.1358,0,0,-2.1113,-2.1129,-2.1172,-2.1189,-2.1215,-2.1221,-2.1231,-2.1254,-2.1261,-2.1309,-2.1298,-2.1329,-2.1384,-2.1402,-2.1419,-2.1492,-2.1482,-2.1502,-2.1538,-2.157,-2.1578,-2.1585,-2.161,-2.162,-2.1508,-2.1508,-2.1508,0,-2.1143,-2.1194,-2.1194,-2.1233,-2.1252,-2.1239,-2.1282,-2.1299,-2.1333,-2.1346,-2.1331,-2.14,-2.1416,-2.1475,-2.1493,-2.1507,-2.1518,-2.1499,-2.1577,-2.1584,-2.1591,-2.1615,-2.1625,-2.151,-2.151,-2.1509,-2.1509,0,-2.123,-2.1266,-2.1297,-2.133,-2.1353,-2.1393,-2.1399,-2.1422,-2.1419,-2.1426,-2.1475,-2.1494,-2.1528,-2.1542,-2.1539,-2.1601,-2.1591,-2.1576,-2.1548,-2.1603,-2.1626,-2.1635,-2.1513,-2.1512,-2.1512,-2.1511,0,0,-2.1316,-2.1348,-2.136,-2.1374,-2.1401,-2.1429,-2.1469,-2.1502,-2.1521,-2.1545,-2.1578,-2.1625,-2.1611,-2.163,-2.1629,-2.1657,-2.1713,-2.1638,-2.1639,-2.1651,-2.178,-2.1791,-2.1802,-2.1706,-2.1708,-2.1709,-2.1778,0,-2.1384,-2.1454,-2.1455,-2.1518,-2.1551,-2.1539,-2.1574,-2.1594,-2.1602,-2.1631,-2.164,-2.1673,-2.1652,-2.1663,-2.169,-2.17,-2.1739,-2.1695,-2.1737,-2.1738,-2.173,-2.1814,-2.1826,-2.189,-2.1787,-2.1789,-2.179,0,-2.1473,-2.15,-2.1567,-2.1589,-2.1602,-2.1633,-2.1663,-2.1691,-2.1714,-2.1718,-2.1738,-2.1733,-2.1774,-2.1744,-2.1799,-2.177,-2.1787,-2.1794,-2.1797,-2.18,-2.1767,-2.182,-2.1911,-2.192,-2.1804,-2.1803,-2.1802,0,-2.1529,-2.1581,-2.1628,-2.1641,-2.1668,-2.169,-2.1702,-2.1722,-2.1742,-2.1768,-2.1781,-2.1811,-2.1828,-2.1852,-2.1855,-2.1833,-2.191,-2.1881,-2.1914,-2.1914,-2.1931,-2.193,-2.2026,-2.1943,-2.1942,-2.1942,-2.1942,0,-2.1605,-2.1646,-2.1653,-2.1682,-2.1728,-2.1728,-2.1774,-2.1784,-2.1802,-2.1833,-2.1824,-2.1853,-2.1856,-2.1885,-2.1888,-2.1933,-2.1941,-2.1945,-2.1945,-2.1945,-2.1945,-2.1956,-2.1952,-2.1945,-2.1944,-2.1944,-2.1943,0,-2.1675,-2.1681,-2.1731,-2.1752,-2.1758,-2.1791,-2.1809,-2.1836,-2.1843,-2.1881,-2.189,-2.1901,-2.1935,-2.1941,-2.1981,-2.1983,-2.2037,-2.2032,-2.2029,-2.2028,-2.2061,-2.2058,-2.2167,-2.2182,-2.2089,-2.209,-2.2091,0,-2.1723,-2.1754,-2.1778,-2.1798,-2.1811,-2.1843,-2.1862,-2.1864,-2.1885,-2.1912,-2.1936,-2.197,-2.1996,-2.2051,-2.2063,-2.2093,-2.209,-2.2126,-2.2094,-2.2093,-2.209,-2.2088,-2.2091,-2.2132,-2.2133,-2.2134,-2.2134,0,-2.1808,-2.1809,-2.1837,-2.1867,-2.1891,-2.1914,-2.1936,-2.1953,-2.1957,-2.1981,-2.2016,-2.2036,-2.2077,-2.211,-2.214,-2.2153,-2.2144,-2.2144,-2.2153,-2.2154,-2.2151,-2.2153,-2.2045,-2.2142,-2.2141,-2.214,-2.214,-2.214,-2.1868,-2.1895,-2.1916,-2.1948,-2.1965,-2.1985,-2.2012,-2.2021,-2.205,-2.2083,-2.2082,-2.212,-2.2141,-2.2181,-2.2196,-2.2225,-2.2213,-2.2227,-2.223,-2.2234,-2.2237,-2.2146,-2.2231,-2.223,-2.223,-2.223,-2.223,0,-2.1952,-2.1965,-2.1994,-2.2025,-2.205,-2.2039,-2.2063,-2.2085,-2.2118,-2.2138,-2.2165,-2.2204,-2.2236,-2.2249,-2.228,-2.2301,-2.2298,-2.231,-2.2308,-2.2311,-2.2245,-2.2234,-2.2311,-2.2311,-2.2311,-2.2311,-2.2311,-2.2311,-2.1999,-2.2044,-2.2047,-2.21,-2.2113,-2.215,-2.2164,-2.2183,-2.2199,-2.2243,-2.2269,-2.2278,-2.2295,-2.2327,-2.2356,-2.2359,-2.2371,-2.2384,-2.2385,-2.2324,-2.2316,-2.2308,-2.2297,-2.2386,-2.2386,-2.2448,-2.2449,-2.2449]},{"header":{"parameterUnit":"m.s-1","parameterCategory":1,"la1":30.2991,"la2":30.254,"lo1":-89.0895,"lo2":-89.0444,"dy":0.0017,"dx":0.0017,"nx":28,"ny":28,"refTime":"2024-06-14T21:00:00:Z","depth":0,"parameterNumber":3,"parameterNumberName":"V-component_of_WINDS"},"data":[0,0,0,0,0,0,0,0,0,0,0,0,0,0,0,0,0,0,0,0,0,0,0,0,0,0,0,0,0,0,0,0,0,0,0,0,0,0,0,0,0,0,0,0,0,0,0,0,0,0,0,0,0,0,0,0,0,0,2.9797,2.9797,0,2.9836,2.9837,2.9837,2.9795,2.9793,2.9791,2.979,2.9827,2.9829,2.9832,0,0,0,0,0,0,0,0,0,0,0,0,0,2.968,2.9682,2.9797,2.9797,2.9798,2.9836,2.9837,2.9837,2.9795,2.9793,2.9791,2.9789,2.9826,2.9829,2.9832,0,0,0,0,0,0,0,0,0,0,0,0,0,2.9726,2.9683,2.9796,2.9781,2.978,2.9836,2.9837,2.9837,2.9795,2.9793,2.979,2.9788,2.9825,2.9829,2.9832,2.9904,0,0,2.9844,2.9845,0,0,0,0,0,0,0,0,2.9723,2.973,2.9783,2.9782,2.9781,2.9808,2.9809,2.986,2.9796,2.9789,2.979,2.9787,2.9822,2.9826,2.9839,2.9906,2.9908,2.9844,2.9846,2.9848,2.9849,0,0,0,0,0,0,0,2.972,2.9728,2.9812,2.9784,2.9783,2.9771,2.9775,2.9819,2.9819,2.979,2.9787,2.9792,2.9821,2.9835,2.9839,2.9908,2.9844,2.9847,2.985,2.9851,3.0035,3.0037,0,0,0,0,0,0,2.9719,2.9726,2.9811,2.9813,2.9746,2.9775,2.9779,2.9802,2.9818,2.9819,2.9794,2.979,2.983,2.9835,2.9841,2.9925,2.9848,2.9852,2.9854,3.0032,3.0035,3.0038,0,0,0,0,0,0,2.9717,2.9727,2.9809,2.9769,2.9778,2.978,2.9805,2.9804,2.9818,2.9822,2.9821,2.9809,2.9828,2.9835,2.9889,2.9925,2.9853,2.9857,3.0029,3.0033,3.0037,3.0094,0,0,0,0,0,0,2.9714,2.9727,2.9755,2.977,2.9781,2.9858,2.9808,2.9807,2.9825,2.982,2.9835,2.9835,2.9827,2.9883,2.9892,2.9929,2.986,3.0026,3.0031,3.0036,3.0089,3.01,3.0109,0,0,0,0,0,2.971,2.9769,2.9757,2.9767,2.9816,2.986,2.9866,2.9857,2.9828,2.9856,2.9858,2.9835,2.992,2.9889,2.9899,2.9938,3.0023,3.003,3.0035,3.0085,3.0098,3.0109,0,0,0,0,0,0,2.9757,2.9771,2.9757,2.9823,2.9841,2.9853,2.9888,2.9871,2.9896,2.989,2.9876,2.988,2.9936,2.9942,2.9907,3.0007,2.9967,2.9975,3.0001,3.0014,3.0023,3.002,2.9863,0,0,0,0,0,2.9776,2.9812,2.9821,2.9878,2.9888,2.9887,2.9905,2.9897,2.9914,2.9921,2.9927,2.9944,2.9974,2.9994,3.0023,3.009,3.0092,3.0122,3.0132,3.014,3.0146,3.0181,3.0194,3.0058,3.0058,3.0058,0,0,2.9814,2.9825,2.9849,2.9888,2.9901,2.9937,2.9893,2.9933,2.9959,2.9926,2.9977,2.9983,3.0,3.0061,3.0088,3.0068,3.0185,3.0147,3.0154,3.0156,3.0189,3.0202,3.0213,3.0062,3.0061,3.006,0,0,2.9901,2.9914,2.9963,2.9977,2.9997,2.9996,3.0008,3.0022,3.0025,3.0076,3.0052,3.0082,3.0135,3.0148,3.0162,3.0254,3.0233,3.0264,3.0315,3.0349,3.036,3.0369,3.0401,3.0413,3.0271,3.0271,3.0271,0,2.9945,3.0,2.999,3.0032,3.0049,3.0022,3.0071,3.0084,3.0112,3.0124,3.0102,3.0167,3.0177,3.024,3.0263,3.0275,3.0287,3.0261,3.0359,3.0369,3.0377,3.0407,3.0419,3.0275,3.0274,3.0274,3.0273,0,3.0052,3.0091,3.0127,3.0156,3.0178,3.0223,3.0218,3.0241,3.023,3.0231,3.0283,3.0294,3.0324,3.0338,3.0327,3.0399,3.0386,3.0362,3.032,3.0394,3.0422,3.0433,3.028,3.0278,3.0277,3.0276,0,0,3.017,3.0193,3.0207,3.0219,3.0239,3.0268,3.0311,3.0341,3.036,3.0381,3.0416,3.0461,3.0439,3.0454,3.0445,3.0476,3.0546,3.0447,3.0447,3.0464,3.0624,3.0642,3.0655,3.0533,3.0535,3.0537,3.0622,0,3.0257,3.0333,3.0325,3.0397,3.0431,3.0406,3.0443,3.0459,3.0461,3.0489,3.0491,3.0523,3.0492,3.0501,3.053,3.0532,3.0578,3.0526,3.0564,3.0565,3.0559,3.067,3.0688,3.0768,3.0633,3.0635,3.0637,0,3.0368,3.0393,3.0469,3.0483,3.0497,3.0531,3.0558,3.0586,3.0603,3.0602,3.0619,3.0605,3.0647,3.0606,3.0662,3.0627,3.0642,3.0645,3.0648,3.065,3.0605,3.0674,3.0794,3.0805,3.0654,3.0653,3.0651,0,3.0445,3.0497,3.0549,3.0561,3.0579,3.0604,3.0612,3.0627,3.0645,3.0668,3.0679,3.0707,3.0721,3.0742,3.0735,3.0706,3.0793,3.0751,3.0791,3.0792,3.081,3.0809,3.0933,3.0822,3.0822,3.0822,3.0821,0,3.0542,3.0589,3.0584,3.0616,3.0667,3.0657,3.0708,3.0713,3.0726,3.0757,3.0737,3.0767,3.0756,3.0784,3.0779,3.0826,3.0833,3.0832,3.083,3.0833,3.0833,3.0842,3.0836,3.0825,3.0824,3.0823,3.0823,0,3.0636,3.0635,3.0689,3.0702,3.0707,3.0744,3.0755,3.0784,3.0784,3.0824,3.0832,3.0832,3.0865,3.086,3.0896,3.0892,3.095,3.0942,3.0945,3.0943,3.0983,3.0978,3.1116,3.1133,3.1012,3.1013,3.1014,0,3.0697,3.0733,3.075,3.077,3.0781,3.0813,3.0832,3.0823,3.0844,3.0865,3.0892,3.0922,3.0947,3.0999,3.1002,3.1029,3.102,3.1066,3.1024,3.1026,3.1019,3.1017,3.102,3.1074,3.1076,3.1077,3.1078,0,3.0806,3.0803,3.0832,3.0861,3.0884,3.0905,3.0925,3.0942,3.0935,3.0959,3.0992,3.1011,3.1048,3.1078,3.1104,3.1111,3.1093,3.1091,3.1102,3.1105,3.1105,3.1104,3.0967,3.1088,3.1087,3.1086,3.1086,3.1085,3.0884,3.0914,3.0931,3.0963,3.0978,3.0996,3.1024,3.1028,3.1056,3.1086,3.1079,3.1117,3.1132,3.1164,3.1174,3.1203,3.1185,3.1201,3.1205,3.1208,3.1213,3.1102,3.1207,3.1207,3.1207,3.1206,3.1206,0,3.0991,3.1001,3.1031,3.1059,3.1084,3.1066,3.1087,3.1108,3.1142,3.1158,3.1183,3.122,3.125,3.1255,3.1282,3.1304,3.1296,3.1311,3.1309,3.1311,3.1227,3.1215,3.1317,3.1317,3.1317,3.1317,3.1317,3.1317,3.1049,3.1099,3.1099,3.1154,3.1163,3.1201,3.1214,3.123,3.1243,3.1287,3.1312,3.1315,3.1326,3.1354,3.138,3.1381,3.1391,3.1409,3.1407,3.1328,3.1317,3.1306,3.1294,3.1412,3.1412,3.1488,3.1489,3.1489]}]]